Lapse_Rate
6.2 6.1 5.9 6.0 5.8 6.0 6.1 5.9 6.0 6.1 6.2 6.4 6.4 6.5 6.5 6.4 6.5 6.5 6.8 6.6 6.8 6.8 6.9 7.0 7.0 7.0 6.9 7.0 6.8 7.0 7.0 6.9 6.8 6.9 6.7 6.6 6.8 7.0 7.1 7.0 6.7 6.5 6.4 6.4 6.4
6.4 6.2 6.1 6.0 6.0 6.0 6.1 6.0 6.0 6.2 6.4 6.4 6.5 6.6 6.7 6.4 6.4 6.6 6.6 6.6 6.6 6.7 6.8 6.9 7.0 7.2 7.0 7.1 6.9 7.2 7.1 7.1 6.8 6.9 6.9 7.0 6.7 6.9 7.1 6.8 6.6 6.4 6.3 6.5 6.3
6.4 6.4 6.2 6.1 6.1 6.0 6.2 6.1 6.1 6.3 6.5 6.5 6.6 6.6 6.8 6.5 6.4 6.4 6.5 6.7 6.4 6.5 6.6 6.6 7.0 7.2 7.2 7.3 7.1 7.3 7.5 7.2 6.8 6.8 7.2 7.0 6.9 6.8 7.0 6.8 6.6 6.3 6.4 6.6 6.2
6.6 6.5 6.3 6.2 6.1 6.1 6.2 6.3 6.2 6.5 6.6 6.6 6.6 6.7 6.8 6.5 6.4 6.6 6.5 6.5 6.4 6.2 6.3 6.4 6.6 6.9 7.2 6.9 7.1 7.1 7.5 7.4 7.2 7.2 7.2 7.2 6.8 6.7 7.0 6.6 6.4 6.2 6.5 6.5 6.1
6.7 6.6 6.5 6.3 6.2 6.3 6.2 6.4 6.3 6.5 6.7 6.7 6.7 6.7 6.8 6.5 6.5 6.7 6.6 6.5 6.4 6.3 6.2 6.4 6.6 6.6 6.7 6.8 6.9 7.3 7.6 7.3 7.4 7.2 7.6 7.3 6.8 6.6 6.8 6.5 6.2 6.2 6.3 6.1 5.9
6.8 6.7 6.7 6.6 6.4 6.3 6.4 6.5 6.4 6.5 6.7 6.7 6.7 6.6 6.8 6.7 6.5 6.7 6.5 6.5 6.4 6.2 6.2 6.6 6.7 6.8 6.8 6.9 6.9 7.3 7.5 7.4 7.3 7.0 7.3 7.2 6.8 6.7 6.7 6.3 6.0 6.2 6.2 6.1 5.9
6.9 6.9 6.9 6.7 6.5 6.4 6.5 6.6 6.5 6.6 6.7 6.7 6.7 6.7 6.8 6.7 6.6 6.5 6.3 6.6 6.6 6.4 6.4 6.4 6.6 6.9 6.5 6.6 7.1 7.4 7.4 7.4 7.2 7.1 7.2 7.0 7.0 6.8 6.7 6.5 6.2 6.3 6.3 6.1 6.0
6.9 7.0 7.0 6.8 6.7 6.5 6.6 6.6 6.7 6.7 6.7 6.8 6.8 6.7 6.8 6.7 6.5 6.4 6.1 6.3 6.4 6.4 6.3 6.5 6.6 6.6 6.7 7.0 7.3 7.2 7.1 7.2 7.1 6.9 7.0 6.9 7.0 7.0 7.0 6.8 6.6 6.4 6.4 6.4 6.0
7.0 7.1 7.2 7.0 6.8 6.5 6.6 6.7 6.8 6.7 6.8 6.8 6.9 6.8 6.9 6.7 6.3 6.2 6.3 6.1 6.4 6.4 6.3 6.3 6.6 6.6 6.8 7.2 7.1 7.2 7.2 7.1 6.9 7.1 7.0 6.7 6.9 6.7 7.0 7.0 6.7 6.4 6.3 6.3 6.3
7.0 7.2 7.2 7.1 6.9 6.6 6.7 6.8 6.9 6.8 6.9 6.9 6.9 6.8 6.8 6.8 6.4 6.3 6.1 6.2 6.2 6.5 6.7 6.3 6.4 6.6 6.8 7.1 7.2 7.3 7.2 7.3 7.3 7.2 7.0 7.0 7.0 6.9 6.9 7.0 6.9 6.7 6.4 6.3 6.3
7.1 7.3 7.3 7.2 7.0 6.8 6.7 6.9 6.9 7.0 7.1 7.0 7.0 7.0 7.0 7.0 6.7 6.5 6.3 6.2 6.4 6.6 6.6 6.7 6.8 6.7 7.0 7.2 7.3 7.4 7.4 7.5 7.3 7.3 7.4 7.2 7.2 6.8 7.0 7.1 6.9 6.7 6.7 6.8 6.8
7.1 7.2 7.4 7.3 7.0 6.9 6.8 7.0 7.1 7.4 7.3 7.1 7.2 7.2 6.9 7.0 7.0 7.0 6.7 6.4 6.4 6.8 6.8 6.9 6.9 6.9 6.9 7.2 7.3 7.5 7.6 7.8 7.6 7.5 7.4 7.4 7.3 7.1 7.4 7.2 7.1 6.9 6.7 6.7 6.9
7.1 7.2 7.3 7.3 7.0 6.9 7.0 7.1 7.0 7.2 7.2 7.4 7.4 7.3 7.0 7.0 7.1 7.0 6.7 6.5 6.3 6.8 6.6 6.6 7.1 7.2 7.4 7.4 7.7 7.8 7.9 8.1 7.6 7.6 7.5 7.5 7.7 7.6 7.8 7.6 7.7 7.4 7.0 6.8 6.8
7.0 7.1 7.2 7.3 7.1 7.0 7.1 7.1 7.0 7.1 7.3 7.6 7.6 7.5 7.4 7.3 7.3 7.1 7.0 6.7 6.5 6.9 6.8 7.0 7.4 7.5 7.5 7.9 8.1 8.1 8.0 8.3 7.9 7.6 7.7 7.7 8.3 8.1 8.1 8.0 8.0 8.0 7.8 7.6 7.5
6.9 7.0 7.2 7.3 7.1 7.0 7.2 7.1 6.9 7.1 7.7 7.7 7.6 7.6 7.6 7.3 7.5 7.4 7.0 7.0 7.0 6.7 7.0 7.3 7.6 7.8 8.0 8.0 7.9 7.9 8.3 8.5 8.2 7.9 7.7 7.7 7.9 8.3 8.2 8.2 8.5 8.3 8.1 8.2 8.4
6.7 6.8 7.1 7.1 7.0 7.0 7.1 7.0 6.9 7.1 7.5 7.5 7.3 7.3 7.6 7.6 7.4 7.4 7.2 7.0 7.0 7.1 7.3 7.4 7.2 7.9 7.9 7.8 7.9 7.8 8.1 8.2 8.1 7.9 8.2 7.7 7.9 8.7 8.4 8.2 8.5 8.5 8.3 8.3 8.5
6.5 6.6 6.9 7.0 6.9 6.9 7.0 6.9 6.9 7.1 7.5 7.2 7.0 7.3 7.5 7.8 7.7 7.3 7.6 7.2 6.8 7.1 7.1 7.9 8.0 7.9 7.9 7.9 8.2 8.2 8.0 8.3 8.4 8.5 8.5 7.8 7.7 8.3 8.4 8.4 8.6 8.7 8.7 8.3 8.8
6.4 6.5 6.7 6.8 6.9 6.9 6.9 6.8 7.0 7.5 7.4 7.2 7.1 7.3 7.2 7.4 7.5 7.7 7.1 7.2 6.7 7.1 7.3 7.7 8.3 8.3 8.4 8.5 8.7 8.5 8.3 8.7 8.3 8.6 8.5 7.6 7.9 8.1 8.4 8.7 8.8 8.8 9.0 8.9 9.0
6.3 6.3 6.4 6.6 6.8 6.8 6.8 6.7 7.3 7.2 7.2 7.2 7.5 7.3 7.1 7.2 7.6 7.4 7.6 7.5 7.4 7.6 7.4 7.7 8.2 8.4 8.4 8.4 8.5 8.9 8.5 8.5 8.4 7.6 8.1 7.7 8.1 8.4 8.6 8.8 8.9 8.9 9.0 9.1 9.3
6.2 6.1 6.0 6.4 6.7 6.7 6.6 6.9 7.1 7.2 7.1 7.1 7.1 7.0 7.2 7.4 7.7 8.0 8.1 7.9 7.6 7.7 7.9 8.0 7.9 8.3 8.6 8.9 8.8 9.0 8.9 8.8 8.7 8.2 8.5 8.0 8.1 8.7 8.7 8.9 9.0 9.0 9.2 9.2 8.9
5.9 5.8 6.0 6.3 6.6 6.6 6.5 6.9 7.0 7.2 7.1 7.0 6.8 6.8 7.1 7.1 7.6 7.7 8.1 8.1 8.2 8.3 8.2 8.0 7.8 8.5 8.7 8.9 9.3 9.2 9.1 8.9 8.7 8.4 9.1 9.1 8.9 8.8 8.8 8.8 8.9 9.0 9.1 9.0 9.0
5.8 5.7 6.1 6.3 6.5 6.5 6.7 6.9 6.9 7.1 7.2 7.2 7.1 6.6 6.6 6.8 7.6 7.7 8.0 8.1 8.0 7.7 8.0 7.9 7.9 8.3 8.8 8.9 9.1 9.1 9.2 9.1 9.1 8.3 8.3 8.0 8.6 8.9 9.0 8.9 8.8 8.8 8.9 8.7 8.6
5.8 5.9 6.1 6.4 6.6 6.6 6.8 7.0 7.0 7.2 7.2 7.1 6.8 7.0 6.8 6.9 7.1 7.7 7.9 7.9 7.7 8.3 8.0 7.5 8.0 8.3 8.8 9.0 8.9 9.0 9.2 9.3 9.3 9.2 8.6 9.0 8.6 9.1 9.1 8.7 8.4 8.4 8.4 8.4 8.5
5.8 5.9 6.2 6.5 6.7 6.8 7.0 7.1 7.3 7.2 7.3 7.3 7.1 7.2 7.1 7.0 7.2 7.5 8.0 8.1 8.1 8.1 7.7 7.7 8.3 8.7 8.8 8.6 8.7 8.8 9.0 9.2 9.2 9.0 8.9 9.0 9.2 9.2 8.8 8.2 8.0 7.9 8.1 8.3 8.2
5.8 6.1 6.6 6.6 6.8 6.9 7.0 7.1 7.2 7.1 7.4 7.4 7.6 7.7 7.1 6.8 7.2 7.7 7.9 7.9 7.8 7.6 7.4 7.6 8.1 8.6 8.6 8.6 8.9 8.9 9.0 9.1 9.1 9.1 9.1 9.3 9.2 9.1 8.6 7.6 7.6 7.9 8.0 7.8 7.8
5.8 6.4 6.7 6.9 7.0 7.0 7.1 7.3 7.5 7.4 7.5 7.4 7.6 7.8 7.1 7.1 7.6 7.9 7.7 7.1 7.3 7.5 7.1 7.5 8.5 8.4 8.5 8.8 9.0 8.9 9.0 9.1 9.1 9.1 9.1 8.9 8.8 8.5 8.0 7.6 7.6 7.7 7.6 7.5 7.6
6.0 6.4 6.6 7.0 7.2 7.0 7.3 7.5 7.6 7.4 7.7 7.5 7.3 7.2 6.9 7.3 7.6 7.6 7.4 7.1 7.2 7.7 7.7 8.0 8.0 8.1 8.5 8.8 9.1 8.9 9.0 8.9 8.8 8.9 8.6 8.5 8.5 8.4 8.1 7.6 7.4 7.3 7.3 7.4 7.5
Wind_Speed
14 14 15 14 14 16 16 16 17 18 19 20 20 20 18 19 20 4 5 4 5 3 9 6 6 5 5 3 2 2 2 4 4 5 5 8 4 5 5 12 3 2 4 9 21
13 14 15 15 15 15 16 17 17 19 19 21 20 19 18 18 4 6 4 8 4 7 4 5 4 7 2 0 1 1 2 1 1 3 5 6 5 7 4 10 4 7 13 20 21
13 14 15 15 16 16 16 17 17 19 20 20 20 20 19 15 4 1 5 11 9 5 1 4 6 2 2 1 1 2 2 1 1 6 6 4 5 4 6 6 6 10 18 19 20
14 14 15 16 16 16 17 18 19 20 20 20 20 20 22 2 0 3 1 8 9 2 4 4 3 3 2 1 0 3 3 2 1 5 4 8 10 4 1 4 4 18 22 19 19
14 15 15 16 17 17 17 18 19 19 21 19 18 19 4 3 4 0 3 4 6 5 1 2 1 4 3 3 0 1 2 3 5 2 6 11 7 6 4 9 15 18 19 18 17
15 15 15 16 18 17 18 19 20 19 20 16 15 18 2 4 2 2 4 3 1 3 3 1 2 2 4 2 2 2 5 8 3 5 5 8 6 3 4 11 16 17 16 16 16
16 15 16 16 18 19 19 20 21 20 18 14 10 3 1 9 2 3 5 2 1 1 1 3 3 1 2 2 1 1 1 3 7 2 4 7 4 3 13 13 15 13 14 14 15
16 15 16 16 18 20 20 22 23 21 15 11 6 2 6 2 1 2 4 3 1 2 2 4 3 4 0 1 1 1 2 1 2 1 2 1 2 6 14 14 14 13 13 13 15
16 16 16 17 18 21 22 24 20 11 6 1 2 2 7 5 3 3 5 4 4 2 6 4 2 2 2 2 2 4 3 2 1 1 3 2 1 5 12 12 12 13 13 14 14
16 16 15 16 17 20 25 17 5 1 3 2 3 4 4 3 1 3 3 8 4 5 0 1 2 0 1 1 3 3 3 1 1 2 3 4 5 6 13 13 13 13 14 13 14
15 16 15 15 15 17 11 2 2 3 2 5 1 2 1 5 1 3 3 5 3 2 1 2 1 3 5 3 7 6 1 1 3 4 3 7 7 5 13 13 13 13 14 16 17
15 16 15 14 14 16 1 2 3 3 5 9 12 8 4 1 1 2 6 6 2 4 2 1 6 3 5 8 3 1 2 3 3 4 8 2 2 3 11 14 15 14 15 16 17
15 16 15 15 16 5 1 2 3 2 3 4 5 5 3 9 5 4 10 3 3 4 4 5 1 3 7 5 3 3 5 4 2 4 1 2 2 3 5 10 8 14 14 16 17
15 15 14 17 4 3 1 1 10 4 2 3 4 5 6 8 2 3 12 5 3 4 5 5 2 5 6 5 4 3 6 3 7 6 1 4 2 3 5 6 11 13 14 17 18
14 13 11 8 3 2 2 8 4 3 3 2 3 6 5 7 7 3 4 4 10 4 4 2 3 3 5 4 7 2 1 9 5 4 2 2 3 2 0 7 12 11 14 16 17
13 11 9 1 2 5 7 6 3 3 5 2 4 6 9 3 3 5 6 5 2 6 3 5 2 4 5 4 11 10 6 8 5 2 2 1 3 2 3 5 6 11 13 15 14
12 9 5 2 0 5 5 2 2 3 2 3 1 5 8 6 5 5 9 10 6 2 2 4 4 2 6 6 6 8 5 2 3 3 1 4 4 2 5 8 11 12 8 9 8
11 7 5 6 3 7 1 2 4 1 3 1 0 1 9 5 4 7 3 4 8 3 0 3 4 7 9 7 5 11 4 3 1 0 3 3 4 2 3 7 5 3 7 6 6
6 2 3 3 15 3 2 5 3 3 1 4 3 3 5 5 4 10 10 8 9 16 7 4 4 2 7 3 1 4 3 3 5 2 3 0 2 6 1 9 12 11 12 14 13
1 2 1 3 13 3 2 4 2 2 2 1 2 1 3 7 9 7 9 6 8 9 5 5 4 3 2 3 5 3 8 3 1 4 3 2 3 2 3 10 9 11 13 13 15
2 2 4 3 3 2 5 5 3 2 4 2 1 2 1 3 9 4 3 6 9 8 6 6 3 1 2 5 7 4 4 5 4 2 2 3 3 1 7 5 3 7 10 12 13
1 2 2 4 3 0 4 5 2 4 1 3 2 1 1 6 4 5 6 5 7 8 6 4 3 4 1 1 2 1 3 5 3 4 1 2 1 3 1 5 7 7 8 11 13
1 2 2 3 4 4 2 4 3 4 4 3 5 5 3 3 3 5 4 3 11 11 10 8 4 3 5 5 4 1 3 3 6 3 5 2 2 4 6 9 7 8 9 10 12
1 3 2 0 1 3 5 4 6 5 5 7 6 7 4 5 6 3 4 4 11 9 2 8 4 2 1 1 1 2 4 6 1 3 6 5 6 9 8 8 7 8 9 10 11
1 1 1 5 5 3 3 4 7 5 6 6 2 6 1 4 3 5 6 3 8 6 4 2 2 1 4 5 3 1 1 6 4 0 4 2 9 15 11 8 7 7 7 8 8
1 1 1 1 2 6 1 5 7 6 4 5 5 2 3 6 8 13 4 5 6 8 7 1 1 5 3 2 5 3 2 6 4 5 3 5 5 7 7 6 7 7 6 6 6
2 2 2 1 3 6 5 6 7 3 5 7 4 3 4 13 18 15 12 9 4 11 7 2 4 1 3 5 2 2 1 1 2 2 5 5 4 12 8 7 7 7 5 6 5
Wind_Direction
350 344 340 340 340 334 333 333 332 326 322 319 319 322 329 321 314 174 235 227 177 186 174 140 170 168 158 158 195 215 93 53 27 20 342 160 154 148 97 138 112 83 123 128 143
350 343 338 338 337 333 331 328 329 322 319 318 320 323 326 326 294 253 250 191 172 168 181 177 138 150 93 118 35 49 88 73 322 344 321 216 174 145 140 151 112 87 100 130 144
346 343 337 335 333 331 329 325 325 320 318 318 321 323 321 322 283 34 328 192 204 169 102 103 113 92 102 29 46 111 135 169 46 329 322 194 143 122 147 203 187 161 145 146 152
342 343 337 331 330 328 327 323 324 320 316 319 323 322 318 262 81 355 337 184 183 156 140 135 131 137 130 197 95 162 211 189 270 316 301 161 133 92 236 346 151 149 151 151 161
341 341 336 330 325 325 324 322 321 317 314 320 324 325 326 302 261 352 172 160 149 111 181 157 146 148 150 126 170 261 292 276 322 349 90 128 115 124 53 96 121 137 151 159 165
338 339 336 329 323 322 320 319 317 313 310 316 322 320 313 287 60 172 150 145 187 134 175 255 123 137 102 83 202 274 298 317 346 85 101 123 116 144 116 130 131 148 161 167 174
334 338 335 329 323 320 317 316 313 309 305 308 311 315 284 255 2 130 159 167 252 75 88 66 146 68 124 161 153 253 308 39 43 67 104 129 136 68 145 149 149 160 169 180 193
332 335 333 328 323 318 316 314 310 302 297 289 279 249 260 165 309 227 182 132 86 353 64 118 127 97 45 37 136 47 48 67 8 332 79 300 328 119 160 160 158 170 180 193 200
330 331 331 326 325 319 316 314 310 303 226 9 226 275 271 315 221 215 189 141 130 61 42 108 103 102 177 200 100 22 114 43 359 252 134 219 297 143 171 181 172 179 192 202 212
328 326 330 325 327 323 318 312 289 237 145 179 265 278 252 11 36 111 211 115 109 140 190 65 48 106 165 208 141 122 119 150 283 92 216 182 234 169 182 191 198 191 198 206 216
326 323 327 324 326 328 340 23 242 196 205 224 277 290 6 334 89 81 172 126 107 94 139 17 270 239 272 192 106 106 116 313 255 226 280 240 244 193 187 204 207 209 210 214 220
325 320 323 321 321 318 286 58 69 49 302 239 245 270 270 345 2 343 176 193 183 247 108 160 255 219 75 183 204 164 278 271 275 339 207 214 232 210 185 219 214 212 216 225 231
323 319 321 318 317 281 77 157 355 273 275 280 203 209 200 174 158 223 186 147 225 241 218 223 86 189 211 202 218 239 236 207 177 108 167 222 182 205 215 230 225 224 224 229 234
321 319 320 319 282 297 186 8 319 218 302 230 222 204 142 168 157 206 196 198 191 275 187 248 247 220 206 243 205 284 224 219 162 188 144 328 84 242 227 248 237 233 226 231 233
319 317 318 337 317 218 79 329 279 235 268 67 143 138 162 195 134 156 175 214 237 188 223 18 301 257 239 240 181 323 81 155 135 137 214 170 245 145 237 236 242 238 234 236 234
319 312 312 212 233 267 318 330 217 206 241 47 137 167 158 178 142 118 184 234 307 266 274 276 247 249 248 275 214 151 101 92 98 186 257 6 251 124 196 244 249 237 239 246 233
315 302 265 283 279 319 311 152 181 214 358 25 67 170 183 167 153 141 178 192 211 222 343 323 238 252 227 253 184 216 205 153 171 181 30 338 208 295 312 311 278 288 284 294 275
310 284 243 245 295 330 177 182 212 202 251 348 131 148 199 153 196 209 205 206 229 137 323 284 214 192 178 228 202 187 230 229 250 223 69 146 210 162 345 335 344 350 28 33 30
308 211 253 259 219 293 159 198 224 207 1 308 121 162 179 208 174 200 203 215 198 196 215 186 267 267 229 250 214 161 195 30 104 50 254 196 239 255 253 54 33 48 60 51 58
253 228 260 80 157 169 173 213 235 209 158 51 39 354 193 189 190 184 182 196 180 184 206 186 264 204 157 141 53 258 132 141 83 168 208 173 279 207 354 357 17 57 67 62 63
259 176 19 127 195 150 204 213 230 192 187 133 311 357 288 303 225 181 216 166 184 180 193 152 227 153 239 201 175 140 167 69 105 311 215 186 212 195 293 337 63 64 68 73 74
289 164 60 181 162 135 181 200 177 177 154 107 128 98 338 315 255 216 227 354 146 120 168 196 212 252 230 83 1 84 150 171 209 177 67 304 165 350 0 117 111 90 74 72 76
101 95 152 288 179 180 213 216 221 207 180 160 188 193 193 250 288 233 197 234 193 168 169 175 237 241 150 147 110 197 132 123 109 137 175 222 126 112 131 116 103 102 87 79 72
203 130 150 174 343 193 174 176 218 229 224 196 185 170 159 231 239 279 239 208 184 189 141 156 214 178 88 9 60 220 149 156 288 179 156 227 165 178 157 128 117 111 90 78 75
218 191 359 185 215 187 159 172 211 234 219 207 246 178 158 279 244 224 225 239 168 191 146 210 213 97 287 262 201 51 106 179 209 50 238 43 199 178 164 149 130 115 103 100 94
291 252 130 133 149 181 179 189 210 222 206 210 257 281 191 234 256 289 242 221 183 175 188 149 352 58 280 14 134 118 103 113 119 141 94 149 175 170 145 137 148 146 141 123 111
1 260 277 113 151 186 205 207 227 221 229 244 237 243 255 295 319 285 250 278 229 169 172 134 127 165 324 18 346 264 336 320 103 182 155 179 158 150 150 167 168 162 170 152 138